Volver al catálogo

SUPERVIEW NEO-2 06

ActivoCienciaSSO
NORAD 68378·PAYLOAD·🇨🇳 China

Lanzado Mar 25, 2026 desde Taiyuan Satellite Launch Center

Loading…

Próximos Pases (próximas 24 horas)

TLE

ActualizadoSource: Space-Track

Época: Sep 14, 2026, 12:00 UTC

1 68378U 26062B   26257.50018860  .00000776  00000-0  39502-4 0  9991
2 68378  97.4391 263.5431 0001401 110.8243 249.3142 15.19722353 26210

Sigue SUPERVIEW NEO-2 06 en tiempo real con AllMySat

Download on the App Store